Location: Rattle Snake Springs
(32.1112°N, 104.4750°W)
Time: 13:17:59
(UTC-07:00)

Amateur Radio Satellites - All Passes

Search period start: 22 January 2018 12:47
Search period end: 23 January 2018 12:47
Location: Rattle Snake Springs, 32.1112°N, 104.4750°W

Satellite Date Start Highest point End Downlink Frequencies (MHz)
Time Altitude Azimuth
Gurwin Techsat 1B 22 Jan 12:57:07 13:02:24 75° 75° (ENE) 13:07:42 435.225
Oscar 19 22 Jan 12:57:10 13:02:21 80° 257° (WSW) 13:07:34 437.125/150
JUGNU 22 Jan 13:06:39 13:10:33 18° 191° (SSW) 13:14:28 437.505
SPROUT 22 Jan 13:12:20 13:15:48 24° 289° (WNW) 13:19:15 437.525
AO-7 22 Jan 13:16:35 13:23:00 25° 60° (ENE) 13:29:26 .
SO-50 22 Jan 13:19:26 13:23:25 26° 55° (NE) 13:27:26 436.795
UKube-1 22 Jan 13:24:09 13:27:11 19° 96° (E) 13:30:13 .
VELOX 1 22 Jan 13:28:47 13:32:40 32° 288° (WNW) 13:36:34 145.980
SRMSAT 22 Jan 13:29:14 13:33:57 24° 177° (S) 13:38:41 437.500
50 SAT 22 Jan 13:34:58 13:37:53 38° 99° (E) 13:40:48 437.505
DX 1 22 Jan 13:38:52 13:43:06 51° 101° (E) 13:47:20 434.975-435.025
AO-91 22 Jan 13:41:19 13:43:11 14° 265° (W) 13:45:03 145.960
MOZHAYETS 4 22 Jan 14:02:42 14:05:15 15° 94° (E) 14:07:47
ITAMSAT 1 22 Jan 14:08:48 14:12:41 22° 68° (ENE) 14:16:33 435.822/435.867
RS-15 22 Jan 14:14:15 14:20:00 14° 26° (NNE) 14:25:36 29.354- 29.394
BEESAT 22 Jan 14:27:17 14:30:00 15° 94° (E) 14:32:42 436.000
UKube-1 22 Jan 14:59:29 15:03:08 28° 289° (WNW) 15:06:48 .
SO-50 22 Jan 14:59:46 15:03:48 28° 248° (WSW) 15:07:52 436.795
DOVE 4 22 Jan 15:06:42 15:09:17 16° 70° (ENE) 15:11:47 437.250
AO-7 22 Jan 15:06:52 15:15:05 63° 256° (WSW) 15:23:22 .
NO-84 22 Jan 15:09:13 15:12:20 38° 127° (SE) 15:15:15 435.350 FM
DX 1 22 Jan 15:17:35 15:18:46 11° 294° (WNW) 15:19:57 434.975-435.025
SRMSAT 22 Jan 15:18:01 15:22:34 23° 187° (S) 15:27:08 437.500
ITUPSAT 1 22 Jan 15:24:46 15:29:34 68° 102° (ESE) 15:34:19 437.325
M-CUBED/EXP-1 PRIME 22 Jan 15:34:07 15:38:15 42° 70° (ENE) 15:42:09 437.505
MOZHAYETS 4 22 Jan 15:38:12 15:42:31 40° 286° (WNW) 15:46:48
CUBESAT XI-V 22 Jan 15:46:03 15:50:32 51° 100° (E) 15:54:59 437.345
ITAMSAT 1 22 Jan 15:47:10 15:51:51 35° 261° (W) 15:56:34 435.822/435.867
BEESAT 22 Jan 16:03:22 16:07:53 43° 287° (WNW) 16:12:23 436.000
RS-15 22 Jan 16:25:01 16:36:15 51° 54° (NE) 16:46:53 29.354- 29.394
KAITUO 1B 22 Jan 16:31:51 16:32:58 11° 69° (ENE) 16:34:03 145.475/437.950
XW-2F 22 Jan 16:35:28 16:38:02 18° 71° (ENE) 16:40:35 145.980 - 146.000
NUDT-PHONESAT 22 Jan 16:38:33 16:40:15 13° 70° (ENE) 16:41:56 437.300
DOVE 4 22 Jan 16:42:51 16:46:42 31° 262° (W) 16:50:27 437.250
XW-2D 22 Jan 16:46:07 16:49:23 27° 73° (ENE) 16:52:39 145.860 - 145.880
NO-84 22 Jan 16:48:11 16:49:34 12° 320° (NW) 16:50:56 435.350 FM
KKS-1 22 Jan 16:53:03 16:57:08 35° 99° (E) 17:01:13 437.445
HO-68 22 Jan 16:58:52 17:04:21 25° 64° (ENE) 17:09:51 435.675
XW-2B 22 Jan 17:03:22 17:07:01 45° 75° (ENE) 17:10:40 145.730 - 145.750
STARS 22 Jan 17:04:22 17:07:12 17° 95° (E) 17:10:02 437.465
ITUPSAT 1 22 Jan 17:06:04 17:06:44 10° 296° (WNW) 17:07:24 437.325
SRMSAT 22 Jan 17:08:14 17:11:07 14° 196° (SSW) 17:14:01 437.500
M-CUBED/EXP-1 PRIME 22 Jan 17:10:35 17:12:38 13° 260° (W) 17:14:36 437.505
CUTE 1.7 + AOD 2 22 Jan 17:16:57 17:19:45 17° 70° (ENE) 17:22:35 437.475
CUBESAT XI-V 22 Jan 17:25:36 17:27:22 12° 294° (WNW) 17:29:09 437.345
PCSat 22 Jan 17:32:26 17:35:39 16° 52° (NE) 17:38:52 145.827
CUTE-I 22 Jan 17:33:33 17:38:52 84° 76° (ENE) 17:44:11 437.470
XW-2C 22 Jan 17:33:41 17:37:27 63° 259° (WSW) 17:41:15 145.795 - 145.815
LilacSat-2 22 Jan 17:34:04 17:37:50 56° 259° (W) 17:41:39 437.200
CUBEBUG 2 22 Jan 17:48:45 17:52:22 26° 71° (ENE) 17:56:06 437.445
UWE-3 22 Jan 17:51:06 17:53:37 15° 68° (ENE) 17:56:12 435.000/436.395/437.385
KAITUO 1B 22 Jan 18:03:03 18:06:32 36° 262° (W) 18:10:00 145.475/437.950
XW-2F 22 Jan 18:08:52 18:11:54 23° 263° (W) 18:14:57 145.980 - 146.000
BEESAT 3 22 Jan 18:10:02 18:13:52 63° 61° (ENE) 18:17:39 437.485
NUDT-PHONESAT 22 Jan 18:10:25 18:13:44 30° 262° (W) 18:17:04 437.300
ZACube-1 22 Jan 18:10:54 18:12:46 12° 67° (ENE) 18:14:39 437.345
AAUSAT CUBESAT 2 22 Jan 18:11:24 18:14:04 17° 70° (ENE) 18:16:45 437.432
AO-73 22 Jan 18:16:22 18:18:15 13° 67° (ENE) 18:20:08 145.935
XW-2D 22 Jan 18:21:23 18:23:30 14° 266° (W) 18:25:38 145.860 - 145.880
nSIGHT-1 22 Jan 18:29:21 18:32:20 41° 131° (SE) 18:35:19 .
KKS-1 22 Jan 18:30:34 18:33:21 17° 292° (WNW) 18:36:09 437.445
SEEDS 22 Jan 18:34:22 18:38:34 89° 250° (WSW) 18:42:47 437.485
RS-15 22 Jan 18:38:01 18:48:12 40° 254° (WSW) 18:58:03 29.354- 29.394
STARS 22 Jan 18:39:35 18:43:32 33° 288° (WNW) 18:47:30 437.465
HO-68 22 Jan 18:44:39 18:51:35 53° 259° (WSW) 18:58:34 435.675
Oscar 11 22 Jan 18:46:25 18:49:09 17° 69° (ENE) 18:51:54 .
ISS 22 Jan 18:50:49 18:53:55 46° 132° (SE) 18:57:03 437.550
CUTE 1.7 + AOD 2 22 Jan 18:51:34 18:55:18 30° 263° (W) 18:59:04 437.475
BEESAT 2 22 Jan 19:02:58 19:06:54 60° 60° (ENE) 19:10:47 435.950
PCSat 22 Jan 19:14:06 19:19:27 62° 248° (WSW) 19:24:46 145.827
UWE-3 22 Jan 19:25:33 19:29:39 39° 262° (W) 19:33:54 435.000/436.395/437.385
CUBEBUG 2 22 Jan 19:25:37 19:28:53 21° 265° (W) 19:32:16 437.445
FO-29 22 Jan 19:28:43 19:33:22 32° 98° (E) 19:38:11 435.910
XW-2A 22 Jan 19:31:48 19:35:03 42° 261° (W) 19:38:18 145.665 - 145.685
STRAND 1 22 Jan 19:32:04 19:37:14 85° 283° (WNW) 19:42:22 437.568
ZACube-1 22 Jan 19:44:16 19:48:31 48° 261° (W) 19:52:54 437.345
AAUSAT CUBESAT 2 22 Jan 19:45:40 19:49:15 28° 263° (W) 19:52:50 437.432
AO-73 22 Jan 19:49:42 19:53:57 48° 261° (W) 19:58:20 145.935
DELFI C3 22 Jan 20:02:57 20:05:47 19° 71° (ENE) 20:08:36 145.870
AO-85 22 Jan 20:04:00 20:08:46 40° 58° (ENE) 20:13:45 145.980
nSIGHT-1 22 Jan 20:06:44 20:08:37 15° 326° (NW) 20:10:32 .
Max Valier Satellite 22 Jan 20:15:53 20:18:21 17° 71° (ENE) 20:20:50 145.860
Oscar 11 22 Jan 20:21:03 20:24:58 33° 262° (W) 20:28:55 .
ISS 22 Jan 20:28:40 20:30:34 15° 327° (NNW) 20:32:29 437.550
EO-88 22 Jan 20:29:44 20:31:59 16° 71° (ENE) 20:34:14 145.990 - 145.960
UNISAT 6 22 Jan 20:38:46 20:41:42 16° 94° (E) 20:44:37 437.425
YUBILEINY 22 Jan 21:06:43 21:11:41 17° 80° (E) 21:16:38 435.215
FO-29 22 Jan 21:14:22 21:18:17 22° 291° (WNW) 21:22:18 435.910
DELFI C3 22 Jan 21:37:18 21:40:20 21° 264° (W) 21:43:22 145.870
LO-87 22 Jan 21:42:16 21:44:13 14° 70° (ENE) 21:46:10 145.935 - 145.965
AO-85 22 Jan 21:45:06 21:48:58 22° 250° (WSW) 21:52:58 145.980
PRISM 22 Jan 21:46:11 21:48:43 16° 95° (E) 21:51:13 437.425
Max Valier Satellite 22 Jan 21:49:00 21:51:56 22° 264° (W) 21:54:55 145.860
TIGRISAT 22 Jan 21:57:56 22:02:37 65° 284° (WNW) 22:07:12 435.000
EO-88 22 Jan 22:02:26 22:05:22 23° 263° (W) 22:08:18 145.990 - 145.960
UNISAT 6 22 Jan 22:14:07 22:18:28 38° 287° (WNW) 22:22:45 437.425
AIST 2D 22 Jan 22:46:52 22:50:08 41° 99° (E) 22:53:24 435.315
ESTCUBE 1 22 Jan 22:54:32 22:59:03 76° 259° (WSW) 23:03:34 437.505/2401.250
YUBILEINY 22 Jan 22:58:31 23:07:20 80° 276° (W) 23:16:11 435.215
O/OREOS (USA 219) 22 Jan 22:59:51 23:03:42 28° 103° (ESE) 23:07:33 437.305
DUCHIFAT 1 22 Jan 23:06:47 23:08:56 14° 94° (E) 23:11:04 145.980
EO-79 22 Jan 23:09:57 23:13:12 21° 96° (E) 23:16:26 145.935-145.965
LO-87 22 Jan 23:14:26 23:17:20 24° 263° (W) 23:20:17 145.935 - 145.965
PRISM 22 Jan 23:20:24 23:23:57 29° 288° (WNW) 23:27:29 437.425
NO-84 22 Jan 23:22:21 23:24:50 26° 45° (NE) 23:27:25 435.350 FM
POLYITAN 1 22 Jan 23:44:45 23:48:59 58° 100° (E) 23:53:10 437.675
NANOSAT C BR1 22 Jan 23:58:07 00:02:23 75° 102° (ESE) 00:06:37 145.865
SPROUT 22 Jan 23:59:37 00:03:46 60° 259° (W) 00:07:58 437.525
BUGSAT 1 22 Jan 23:59:51 00:01:12 11° 93° (E) 00:02:34 437.445
QB50P2 23 Jan 00:14:46 00:18:54 49° 285° (WNW) 00:23:01 145.880/145.840
VELOX 1 23 Jan 00:20:21 00:24:42 68° 259° (WSW) 00:29:04 145.980
DX 1 23 Jan 00:30:04 00:33:32 24° 71° (ENE) 00:37:01 434.975-435.025
O/OREOS (USA 219) 23 Jan 00:39:42 00:43:03 20° 297° (WNW) 00:46:25 437.305
DUCHIFAT 1 23 Jan 00:40:45 00:44:39 37° 287° (WNW) 00:48:33 145.980
EO-79 23 Jan 00:45:22 00:48:50 24° 289° (WNW) 00:52:17 145.935-145.965
NO-84 23 Jan 01:00:19 01:01:47 13° 236° (SW) 01:03:17 435.350 FM
YUBILEINY 23 Jan 01:02:25 01:05:26 12° 294° (WNW) 01:08:28 435.215
Oscar 19 23 Jan 01:13:42 01:18:45 53° 101° (E) 01:23:44 437.125/150
Gurwin Techsat 1B 23 Jan 01:18:23 01:23:25 43° 99° (E) 01:28:27 435.225
50 SAT 23 Jan 01:25:37 01:28:38 60° 259° (W) 01:31:41 437.505
BEESAT 23 Jan 01:31:02 01:31:59 11° 65° (ENE) 01:32:57 436.000
AO-91 23 Jan 01:31:54 01:36:38 75° 283° (WNW) 01:41:46 145.960
BUGSAT 1 23 Jan 01:32:39 01:36:42 44° 286° (WNW) 01:40:42 437.445
FALCONSAT 3 23 Jan 01:32:42 01:35:50 26° 151° (SSE) 01:38:57 435.103
UKube-1 23 Jan 01:48:10 01:52:24 63° 258° (WSW) 01:56:39 .
DX 1 23 Jan 02:06:15 02:09:36 22° 263° (W) 02:12:57 434.975-435.025
ITUPSAT 1 23 Jan 02:26:38 02:31:09 45° 73° (ENE) 02:35:42 437.325
ITAMSAT 1 23 Jan 02:28:44 02:29:35 10° 92° (E) 02:30:25 435.822/435.867
MOZHAYETS 4 23 Jan 02:34:27 02:39:04 77° 257° (WSW) 02:43:43
nSIGHT-1 23 Jan 02:35:24 02:38:32 60° 43° (NE) 02:41:40 .
CUBESAT XI-V 23 Jan 02:44:36 02:48:39 30° 72° (ENE) 02:52:41 437.345
Oscar 19 23 Jan 02:54:45 02:57:32 15° 295° (WNW) 03:00:19 437.125/150
ISS 23 Jan 02:58:30 03:01:45 70° 44° (NE) 03:05:00 437.550
Gurwin Techsat 1B 23 Jan 02:59:21 03:02:58 19° 293° (WNW) 03:06:35 435.225
BEESAT 23 Jan 03:04:25 03:09:08 65° 259° (W) 03:13:52 436.000
FALCONSAT 3 23 Jan 03:11:01 03:14:42 81° 344° (NNW) 03:18:22 435.103
AO-7 23 Jan 03:13:51 03:22:07 62° 104° (ESE) 03:30:18 .
SO-50 23 Jan 03:29:32 03:33:00 23° 110° (ESE) 03:36:30 436.795
KKS-1 23 Jan 03:47:11 03:50:13 19° 69° (ENE) 03:53:17 437.445
ITAMSAT 1 23 Jan 04:04:13 04:09:24 69° 286° (WNW) 04:14:34 435.822/435.867
ITUPSAT 1 23 Jan 04:06:37 04:09:07 14° 266° (W) 04:11:38 437.325
CUBESAT XI-V 23 Jan 04:22:25 04:25:56 21° 264° (W) 04:29:29 437.345
DOVE 4 23 Jan 04:44:45 04:49:14 89° 105° (ESE) 04:54:00 437.250
FALCONSAT 3 23 Jan 04:50:23 04:53:57 48° 360° (N) 04:57:31 435.103
M-CUBED/EXP-1 PRIME 23 Jan 04:51:05 04:54:19 60° 105° (ESE) 04:57:31 437.505
AO-7 23 Jan 05:07:45 05:14:13 26° 300° (WNW) 05:20:40 .
SO-50 23 Jan 05:09:27 05:13:16 28° 305° (NW) 05:17:08 436.795
XW-2C 23 Jan 05:11:39 05:14:12 17° 95° (E) 05:16:44 145.795 - 145.815
LilacSat-2 23 Jan 05:12:32 05:15:20 20° 96° (E) 05:18:08 437.200
KKS-1 23 Jan 05:22:38 05:26:30 30° 262° (W) 05:30:24 437.445
STARS 23 Jan 05:30:35 05:34:54 70° 258° (WSW) 05:39:15 437.465
KAITUO 1B 23 Jan 05:38:37 05:41:45 26° 97° (E) 05:44:53 145.475/437.950
XW-2F 23 Jan 05:44:33 05:48:08 45° 99° (E) 05:51:41 145.980 - 146.000
NUDT-PHONESAT 23 Jan 05:44:42 05:47:57 30° 98° (E) 05:51:09 437.300
CUTE-I 23 Jan 05:55:30 06:00:40 50° 100° (E) 06:05:49 437.470
XW-2D 23 Jan 05:56:25 06:00:09 82° 99° (E) 06:03:52 145.860 - 145.880
XW-2B 23 Jan 06:14:11 06:17:52 58° 283° (WNW) 06:21:31 145.730 - 145.750
HO-68 23 Jan 06:17:37 06:24:14 40° 99° (E) 06:30:50 435.675
SEEDS 23 Jan 06:23:30 06:26:39 21° 96° (E) 06:29:46 437.485
FALCONSAT 3 23 Jan 06:29:34 06:33:14 77° 15° (NNE) 06:36:54 435.103
RS-15 23 Jan 06:40:22 06:52:04 53° 109° (ESE) 07:03:42 29.354- 29.394
CUTE 1.7 + AOD 2 23 Jan 06:40:25 06:44:35 64° 100° (E) 06:48:43 437.475
STRAND 1 23 Jan 06:43:00 06:48:03 83° 77° (ENE) 06:53:10 437.568
XW-2C 23 Jan 06:45:23 06:48:16 21° 288° (WNW) 06:51:07 145.795 - 145.815
LilacSat-2 23 Jan 06:46:44 06:49:27 19° 289° (WNW) 06:52:08 437.200
XW-2A 23 Jan 06:58:52 07:00:38 14° 95° (E) 07:02:23 145.665 - 145.685
KAITUO 1B 23 Jan 07:13:31 07:15:26 14° 290° (WNW) 07:17:20 145.475/437.950
FO-29 23 Jan 07:18:54 07:25:53 79° 76° (ENE) 07:32:03 435.910
UWE-3 23 Jan 07:19:25 07:24:01 61° 101° (E) 07:28:30 435.000/436.395/437.385
CUBEBUG 2 23 Jan 07:19:35 07:24:19 71° 284° (WNW) 07:28:59 437.445
NUDT-PHONESAT 23 Jan 07:19:57 07:21:26 12° 291° (WNW) 07:22:54 437.300
JUGNU 23 Jan 07:27:45 07:30:13 13° 164° (SSE) 07:32:41 437.505
AAUSAT CUBESAT 2 23 Jan 07:31:34 07:35:36 58° 100° (E) 07:39:38 437.432
CUTE-I 23 Jan 07:36:58 07:40:15 17° 294° (WNW) 07:43:31 437.470
ZACube-1 23 Jan 07:37:12 07:41:33 46° 99° (E) 07:45:47 437.345
AO-73 23 Jan 07:42:18 07:46:37 45° 99° (E) 07:50:49 145.935
BEESAT 3 23 Jan 07:54:37 07:58:10 33° 113° (ESE) 08:01:45 437.485
SEEDS 23 Jan 07:58:55 08:02:12 23° 288° (WNW) 08:05:28 437.485
HO-68 23 Jan 08:05:34 08:11:43 33° 294° (WNW) 08:17:54 435.675
PCSat 23 Jan 08:08:03 08:12:51 34° 108° (ESE) 08:17:40 145.827
FALCONSAT 3 23 Jan 08:08:57 08:12:07 28° 208° (SSW) 08:15:18 435.103
Oscar 11 23 Jan 08:12:26 08:16:42 63° 100° (E) 08:20:56 .
XW-2A 23 Jan 08:30:42 08:33:14 20° 288° (WNW) 08:35:44 145.665 - 145.685
BEESAT 2 23 Jan 08:49:14 08:52:48 33° 112° (ESE) 08:56:25 435.950
TIGRISAT 23 Jan 08:51:21 08:55:40 59° 75° (ENE) 09:00:07 435.000
RS-15 23 Jan 08:53:15 09:04:42 43° 308° (NW) 09:16:08 29.354- 29.394
UWE-3 23 Jan 08:58:47 08:59:50 11° 294° (WNW) 09:00:52 435.000/436.395/437.385
UNISAT 6 23 Jan 09:07:21 09:11:44 79° 258° (WSW) 09:16:16 437.425
FO-29 23 Jan 09:08:16 09:11:08 13° 266° (W) 09:13:53 435.910
JUGNU 23 Jan 09:14:13 09:18:35 22° 173° (S) 09:22:55 437.505
O/OREOS (USA 219) 23 Jan 09:14:26 09:18:08 25° 65° (ENE) 09:21:51 437.305
YUBILEINY 23 Jan 09:15:11 09:23:17 41° 77° (ENE) 09:31:17 435.215
ZACube-1 23 Jan 09:15:17 09:17:19 13° 293° (WNW) 09:19:21 437.345
DELFI C3 23 Jan 09:17:26 09:21:19 61° 101° (E) 09:25:12 145.870
AO-73 23 Jan 09:20:19 09:22:20 13° 293° (WNW) 09:24:21 145.935
Max Valier Satellite 23 Jan 09:22:32 09:26:03 42° 99° (E) 09:29:31 145.860
BEESAT 3 23 Jan 09:33:10 09:35:44 16° 307° (NW) 09:38:18 437.485
EO-88 23 Jan 09:34:43 09:38:06 37° 99° (E) 09:41:26 145.990 - 145.960
PCSat 23 Jan 09:51:43 09:56:12 26° 303° (WNW) 10:00:44 145.827
PRISM 23 Jan 10:03:53 10:07:56 85° 258° (WSW) 10:12:00 437.425
AO-85 23 Jan 10:14:36 10:18:02 31° 112° (ESE) 10:21:39 145.980
BEESAT 2 23 Jan 10:27:56 10:30:33 17° 307° (NW) 10:33:13 435.950
POLYITAN 1 23 Jan 10:32:54 10:36:14 23° 71° (ENE) 10:39:35 437.675
LO-87 23 Jan 10:45:03 10:48:20 32° 98° (E) 10:51:35 145.935 - 145.965
NANOSAT C BR1 23 Jan 10:45:29 10:49:05 28° 72° (ENE) 10:52:41 145.865
AIST 2D 23 Jan 10:48:36 10:52:00 46° 261° (W) 10:55:23 435.315
ESTCUBE 1 23 Jan 10:52:00 10:56:00 32° 98° (E) 10:59:57 437.505/2401.250
O/OREOS (USA 219) 23 Jan 10:53:55 10:57:22 22° 258° (WSW) 11:00:49 437.305
QB50P2 23 Jan 11:01:55 11:06:04 61° 76° (ENE) 11:10:16 145.880/145.840
JUGNU 23 Jan 11:02:25 11:06:59 24° 183° (S) 11:11:35 437.505
YUBILEINY 23 Jan 11:12:13 11:19:47 35° 274° (W) 11:27:22 435.215
RS-15 23 Jan 11:16:51 11:21:46 13° 338° (NNW) 11:26:39 29.354- 29.394
DUCHIFAT 1 23 Jan 11:26:49 11:30:59 81° 79° (E) 11:35:13 145.980
SRMSAT 23 Jan 11:28:24 11:32:22 19° 168° (SSE) 11:36:23 437.500
EO-79 23 Jan 11:31:46 11:35:56 62° 259° (W) 11:40:08 145.935-145.965
SPROUT 23 Jan 11:49:57 11:53:47 31° 98° (E) 11:57:35 437.525
AO-85 23 Jan 11:55:55 11:58:30 17° 309° (NW) 12:01:11 145.980
POLYITAN 1 23 Jan 12:08:33 12:11:51 22° 264° (W) 12:15:11 437.675
VELOX 1 23 Jan 12:15:09 12:19:04 31° 98° (E) 12:22:58 145.980
BUGSAT 1 23 Jan 12:16:55 12:20:55 62° 75° (ENE) 12:25:00 437.445
LO-87 23 Jan 12:20:12 12:21:21 11° 291° (WNW) 12:22:30 145.935 - 145.965
NANOSAT C BR1 23 Jan 12:21:53 12:24:43 18° 265° (W) 12:27:36 145.865
Oscar 19 23 Jan 12:25:38 12:30:36 48° 73° (ENE) 12:35:35 437.125/150
AO-91 23 Jan 12:25:39 12:28:49 39° 75° (ENE) 12:32:03 145.960
ESTCUBE 1 23 Jan 12:29:28 12:32:30 18° 291° (WNW) 12:35:32 437.505/2401.250
Gurwin Techsat 1B 23 Jan 12:34:41 12:39:40 44° 72° (ENE) 12:44:41 435.225
